Time,TemperatureF,DewpointF,PressureIn,WindDirection,WindDirectionDegrees,WindSpeedMPH,WindSpeedGustMPH,Humidity,HourlyPrecipIn,Conditions,Clouds,dailyrainin,SoftwareType,DateUTC
2013-09-06 00:01:00,71.2,65.8,28.16,WNW,293,0.0,4.0,83,0.00,,---,0.01,VWS V14.00,2013-09-06 04:01:00,
2013-09-06 00:02:00,71.3,65.9,28.16,WNW,293,0.0,4.0,83,0.00,,---,0.01,VWS V14.00,2013-09-06 04:02:00,
2013-09-06 00:03:00,71.3,65.5,28.16,WNW,293,2.0,4.0,82,0.00,,---,0.01,VWS V14.00,2013-09-06 04:03:00,
2013-09-06 00:04:00,71.3,65.5,28.16,WNW,293,0.0,4.0,82,0.00,,---,0.01,VWS V14.00,2013-09-06 04:04:00,
2013-09-06 00:05:00,71.3,65.5,28.16,WNW,293,0.0,4.0,82,0.00,,---,0.01,VWS V14.00,2013-09-06 04:05:00,
2013-09-06 00:10:00,71.2,65.1,28.16,WNW,292,0.0,0.0,81,0.00,,---,0.00,VWS V14.00,2013-09-06 04:10:00,
2013-09-06 00:15:00,70.9,65.1,28.16,WNW,293,0.0,1.0,82,0.00,,---,0.00,VWS V14.00,2013-09-06 04:15:00,
2013-09-06 00:20:00,70.7,65.3,28.16,WNW,293,0.0,1.0,83,0.00,,---,0.00,VWS V14.00,2013-09-06 04:20:00,
2013-09-06 00:25:00,70.5,65.1,28.16,WNW,292,0.0,1.0,83,0.00,,---,0.00,VWS V14.00,2013-09-06 04:25:00,
2013-09-06 00:30:00,70.3,64.9,28.16,WNW,293,0.0,1.0,83,0.00,,---,0.00,VWS V14.00,2013-09-06 04:30:00,
2013-09-06 00:36:00,70.4,65.0,28.16,WNW,293,0.0,1.0,83,0.00,,---,0.00,VWS V14.00,2013-09-06 04:36:00,
2013-09-06 00:41:00,70.4,64.7,28.16,WNW,293,1.0,3.0,82,0.00,,---,0.00,VWS V14.00,2013-09-06 04:41:00,
2013-09-06 00:46:00,70.5,65.1,28.16,WNW,293,3.0,4.0,83,0.00,,---,0.00,VWS V14.00,2013-09-06 04:46:00,
2013-09-06 00:51:00,70.6,65.2,28.16,WNW,292,2.0,4.0,83,0.00,,---,0.00,VWS V14.00,2013-09-06 04:51:00,
2013-09-06 00:56:00,70.6,64.8,28.16,WNW,293,2.0,4.0,82,0.00,,---,0.00,VWS V14.00,2013-09-06 04:56:00,
2013-09-06 01:01:00,70.6,64.8,28.16,WNW,292,0.0,4.0,82,0.00,,---,0.00,VWS V14.00,2013-09-06 05:01:00,
2013-09-06 01:06:00,70.5,64.8,28.16,WNW,293,0.0,4.0,82,0.00,,---,0.00,VWS V14.00,2013-09-06 05:06:00,
2013-09-06 01:11:00,70.3,64.2,28.16,WNW,292,0.0,1.0,81,0.00,,---,0.00,VWS V14.00,2013-09-06 05:11:00,
2013-09-06 01:16:00,70.3,64.2,28.16,WNW,293,0.0,1.0,81,0.00,,---,0.00,VWS V14.00,2013-09-06 05:16:00,
2013-09-06 01:21:00,70.1,64.0,28.16,WNW,292,0.0,1.0,81,0.00,,---,0.00,VWS V14.00,2013-09-06 05:21:00,
2013-09-06 01:26:00,70.0,63.9,28.16,WNW,293,0.0,1.0,81,0.00,,---,0.00,VWS V14.00,2013-09-06 05:26:00,
2013-09-06 01:31:00,69.8,63.7,28.16,WNW,293,0.0,1.0,81,0.00,,---,0.00,VWS V14.00,2013-09-06 05:31:00,
2013-09-06 01:36:00,69.7,63.3,28.16,WNW,292,0.0,1.0,80,0.00,,---,0.00,VWS V14.00,2013-09-06 05:36:00,
2013-09-06 01:41:00,69.7,63.3,28.16,WNW,293,0.0,1.0,80,0.00,,---,0.00,VWS V14.00,2013-09-06 05:41:00,
2013-09-06 01:46:00,69.5,62.7,28.16,WNW,292,0.0,1.0,79,0.00,,---,0.00,VWS V14.00,2013-09-06 05:46:00,
2013-09-06 01:51:00,69.5,62.7,28.16,WNW,293,0.0,1.0,79,0.00,,---,0.00,VWS V14.00,2013-09-06 05:51:00,
2013-09-06 01:56:00,69.5,62.3,28.16,WNW,292,0.0,1.0,78,0.00,,---,0.00,VWS V14.00,2013-09-06 05:56:00,
2013-09-06 02:01:00,69.5,62.3,28.16,WNW,293,0.0,1.0,78,0.00,,---,0.00,VWS V14.00,2013-09-06 06:01:00,
2013-09-06 02:06:00,69.5,62.3,28.16,WNW,292,0.0,1.0,78,0.00,,---,0.00,VWS V14.00,2013-09-06 06:06:00,
2013-09-06 02:11:00,69.5,62.3,28.16,WNW,293,0.0,3.0,78,0.00,,---,0.00,VWS V14.00,2013-09-06 06:11:00,
2013-09-06 02:16:00,69.5,62.3,28.16,WNW,293,0.0,3.0,78,0.00,,---,0.00,VWS V14.00,2013-09-06 06:16:00,
2013-09-06 02:22:00,69.4,62.6,28.16,WNW,293,3.0,3.0,79,0.00,,---,0.00,VWS V14.00,2013-09-06 06:22:00,
2013-09-06 02:27:00,69.4,62.2,28.16,WNW,294,3.0,5.0,78,0.00,,---,0.00,VWS V14.00,2013-09-06 06:27:00,
2013-09-06 02:32:00,69.6,62.4,28.16,WNW,294,0.0,5.0,78,0.00,,---,0.00,VWS V14.00,2013-09-06 06:32:00,
2013-09-06 02:37:00,69.7,62.5,28.16,WNW,294,0.0,5.0,78,0.00,,---,0.00,VWS V14.00,2013-09-06 06:37:00,
2013-09-06 02:42:00,69.6,62.4,28.16,WNW,294,0.0,1.0,78,0.00,,---,0.00,VWS V14.00,2013-09-06 06:42:00,
2013-09-06 02:47:00,69.5,62.0,28.16,WNW,294,0.0,1.0,77,0.00,,---,0.00,VWS V14.00,2013-09-06 06:47:00,
2013-09-06 02:52:00,69.4,61.9,28.16,WNW,296,0.0,4.0,77,0.00,,---,0.00,VWS V14.00,2013-09-06 06:52:00,
2013-09-06 02:57:00,69.5,62.0,28.16,WNW,296,0.0,4.0,77,0.00,,---,0.00,VWS V14.00,2013-09-06 06:57:00,
2013-09-06 03:02:00,69.6,62.1,28.16,WNW,296,3.0,4.0,77,0.00,,---,0.00,VWS V14.00,2013-09-06 07:02:00,
2013-09-06 03:07:00,69.6,62.1,28.16,WNW,296,0.0,4.0,77,0.00,,---,0.00,VWS V14.00,2013-09-06 07:07:00,
2013-09-06 03:12:00,69.4,61.9,28.16,WNW,296,2.0,3.0,77,0.00,,---,0.00,VWS V14.00,2013-09-06 07:12:00,
2013-09-06 03:17:00,69.3,62.2,28.16,WNW,300,2.0,5.0,78,0.00,,---,0.00,VWS V14.00,2013-09-06 07:17:00,
2013-09-06 03:22:00,69.3,62.2,28.16,NW,304,0.0,5.0,78,0.00,,---,0.00,VWS V14.00,2013-09-06 07:22:00,
2013-09-06 03:27:00,69.4,61.5,28.16,NNW,331,3.0,6.0,76,0.00,,---,0.00,VWS V14.00,2013-09-06 07:27:00,
2013-09-06 03:32:00,69.8,61.5,28.16,NNW,339,0.0,6.0,75,0.00,,---,0.00,VWS V14.00,2013-09-06 07:32:00,
2013-09-06 03:37:00,69.9,61.2,28.16,NNW,346,3.0,3.0,74,0.00,,---,0.00,VWS V14.00,2013-09-06 07:37:00,
2013-09-06 03:42:00,70.0,61.3,28.16,NNW,348,4.0,5.0,74,0.00,,---,0.00,VWS V14.00,2013-09-06 07:42:00,
2013-09-06 03:47:00,70.1,61.4,28.16,North,350,4.0,6.0,74,0.00,,---,0.00,VWS V14.00,2013-09-06 07:47:00,
2013-09-06 03:52:00,70.3,61.6,28.16,NNE,13,6.0,6.0,74,0.00,,---,0.00,VWS V14.00,2013-09-06 07:52:00,
2013-09-06 03:57:00,70.4,61.3,28.16,NE,34,0.0,6.0,73,0.00,,---,0.00,VWS V14.00,2013-09-06 07:57:00,
2013-09-06 04:02:00,70.5,61.0,28.16,ENE,57,4.0,10.0,72,0.00,,---,0.00,VWS V14.00,2013-09-06 08:02:00,
2013-09-06 04:08:00,70.7,61.2,28.16,NE,42,4.0,4.0,72,0.00,,---,0.00,VWS V14.00,2013-09-06 08:08:00,
2013-09-06 04:13:00,70.5,60.7,28.16,NE,51,9.0,9.0,71,0.00,,---,0.00,VWS V14.00,2013-09-06 08:13:00,
2013-09-06 04:18:00,70.4,60.6,28.16,NE,39,11.0,11.0,71,0.00,,---,0.00,VWS V14.00,2013-09-06 08:18:00,
2013-09-06 04:23:00,70.4,60.2,28.16,NE,53,5.0,12.0,70,0.00,,---,0.00,VWS V14.00,2013-09-06 08:23:00,
2013-09-06 04:28:00,70.2,60.4,28.16,ENE,65,5.0,12.0,71,0.00,,---,0.00,VWS V14.00,2013-09-06 08:28:00,
2013-09-06 04:33:00,70.1,60.3,28.16,NE,52,5.0,12.0,71,0.00,,---,0.00,VWS V14.00,2013-09-06 08:33:00,
2013-09-06 04:38:00,69.9,59.7,28.16,NE,42,7.0,7.0,70,0.00,,---,0.00,VWS V14.00,2013-09-06 08:38:00,
2013-09-06 04:43:00,69.6,59.4,28.16,NE,53,4.0,10.0,70,0.00,,---,0.00,VWS V14.00,2013-09-06 08:43:00,
2013-09-06 04:48:00,69.4,59.2,28.16,NE,52,7.0,10.0,70,0.00,,---,0.00,VWS V14.00,2013-09-06 08:48:00,
2013-09-06 04:53:00,69.3,59.1,28.16,ENE,59,6.0,10.0,70,0.00,,---,0.00,VWS V14.00,2013-09-06 08:53:00,
2013-09-06 04:58:00,69.2,59.4,28.16,NE,44,5.0,10.0,71,0.00,,---,0.00,VWS V14.00,2013-09-06 08:58:00,
2013-09-06 05:03:00,69.2,59.4,28.16,NE,53,6.0,10.0,71,0.00,,---,0.00,VWS V14.00,2013-09-06 09:03:00,
2013-09-06 05:08:00,69.1,58.5,28.16,NE,44,9.0,9.0,69,0.00,,---,0.00,VWS V14.00,2013-09-06 09:08:00,
2013-09-06 05:13:00,69.0,58.4,28.16,NE,48,4.0,10.0,69,0.00,,---,0.00,VWS V14.00,2013-09-06 09:13:00,
2013-09-06 05:18:00,69.0,59.2,28.16,NE,51,4.0,10.0,71,0.00,,---,0.00,VWS V14.00,2013-09-06 09:18:00,
2013-09-06 05:23:00,69.0,60.0,28.16,NE,45,3.0,10.0,73,0.00,,---,0.00,VWS V14.00,2013-09-06 09:23:00,
2013-09-06 05:28:00,68.8,59.8,28.16,NE,44,2.0,10.0,73,0.00,,---,0.00,VWS V14.00,2013-09-06 09:28:00,
2013-09-06 05:33:00,68.6,59.6,28.16,NE,37,6.0,10.0,73,0.00,,---,0.00,VWS V14.00,2013-09-06 09:33:00,
2013-09-06 05:38:00,68.4,59.4,28.16,NNE,29,5.0,6.0,73,0.00,,---,0.00,VWS V14.00,2013-09-06 09:38:00,
2013-09-06 05:43:00,68.1,59.1,28.16,North,9,6.0,6.0,73,0.00,,---,0.00,VWS V14.00,2013-09-06 09:43:00,
2013-09-06 05:48:00,67.9,58.5,28.16,North,5,3.0,7.0,72,0.00,,---,0.00,VWS V14.00,2013-09-06 09:48:00,
2013-09-06 05:53:00,67.6,58.7,28.16,NE,38,7.0,9.0,73,0.00,,---,0.00,VWS V14.00,2013-09-06 09:53:00,
2013-09-06 05:58:00,67.5,57.8,28.16,NNE,22,3.0,9.0,71,0.00,,---,0.00,VWS V14.00,2013-09-06 09:58:00,
2013-09-06 06:04:00,67.4,58.1,28.16,NNE,19,3.0,9.0,72,0.00,,---,0.00,VWS V14.00,2013-09-06 10:04:00,
2013-09-06 06:09:00,67.2,58.3,28.16,NNE,22,5.0,6.0,73,0.00,,---,0.00,VWS V14.00,2013-09-06 10:09:00,
2013-09-06 06:14:00,67.3,58.4,28.16,NE,41,1.0,8.0,73,0.00,,---,0.00,VWS V14.00,2013-09-06 10:14:00,
2013-09-06 06:19:00,67.3,58.7,28.16,NNE,24,3.0,8.0,74,0.00,,---,0.00,VWS V14.00,2013-09-06 10:19:00,
2013-09-06 06:24:00,67.2,58.6,28.16,ENE,66,5.0,9.0,74,0.00,,---,0.00,VWS V14.00,2013-09-06 10:24:00,
2013-09-06 06:29:00,67.2,58.3,28.16,NNE,21,6.0,9.0,73,0.00,,---,0.00,VWS V14.00,2013-09-06 10:29:00,
2013-09-06 06:34:00,67.0,58.5,28.16,NNE,12,6.0,9.0,74,0.00,,---,0.00,VWS V14.00,2013-09-06 10:34:00,
2013-09-06 06:39:00,66.9,58.3,28.16,NE,36,4.0,9.0,74,0.00,,---,0.00,VWS V14.00,2013-09-06 10:39:00,
2013-09-06 06:44:00,66.8,58.3,28.16,ENE,61,6.0,9.0,74,0.00,,---,0.00,VWS V14.00,2013-09-06 10:44:00,
2013-09-06 06:49:00,66.7,57.8,28.16,NE,37,7.0,9.0,73,0.00,,---,0.00,VWS V14.00,2013-09-06 10:49:00,
2013-09-06 06:54:00,66.7,57.8,28.16,NE,42,5.0,13.0,73,0.00,,---,0.00,VWS V14.00,2013-09-06 10:54:00,
2013-09-06 06:59:00,66.8,58.3,28.16,NE,55,6.0,13.0,74,0.00,,---,0.00,VWS V14.00,2013-09-06 10:59:00,
2013-09-06 07:04:00,66.6,56.9,28.16,NE,36,5.0,13.0,71,0.00,,---,0.00,VWS V14.00,2013-09-06 11:04:00,
2013-09-06 07:09:00,66.4,56.7,28.16,ENE,78,6.0,9.0,71,0.00,,---,0.00,VWS V14.00,2013-09-06 11:09:00,
2013-09-06 07:14:00,66.5,56.8,28.16,NE,46,5.0,12.0,71,0.00,,---,0.00,VWS V14.00,2013-09-06 11:14:00,
2013-09-06 07:19:00,66.5,57.6,28.16,NNE,32,5.0,12.0,73,0.00,,---,0.00,VWS V14.00,2013-09-06 11:19:00,
2013-09-06 07:24:00,66.2,56.1,28.16,ENE,67,8.0,12.0,70,0.00,,---,0.00,VWS V14.00,2013-09-06 11:24:00,
2013-09-06 07:29:00,66.2,56.5,28.16,NE,53,9.0,12.0,71,0.00,,---,0.00,VWS V14.00,2013-09-06 11:29:00,
2013-09-06 07:34:00,66.0,56.3,28.16,NE,53,6.0,13.0,71,0.00,,---,0.00,VWS V14.00,2013-09-06 11:34:00,
2013-09-06 07:39:00,65.9,55.8,28.16,NE,41,5.0,12.0,70,0.00,,---,0.00,VWS V14.00,2013-09-06 11:39:00,
2013-09-06 07:44:00,65.8,55.4,28.16,NE,40,7.0,13.0,69,0.00,,---,0.00,VWS V14.00,2013-09-06 11:44:00,
2013-09-06 07:49:00,65.8,55.4,28.16,ENE,65,9.0,13.0,69,0.00,,---,0.00,VWS V14.00,2013-09-06 11:49:00,
2013-09-06 07:55:00,65.9,56.2,28.16,NE,40,5.0,13.0,71,0.00,,---,0.00,VWS V14.00,2013-09-06 11:55:00,
2013-09-06 08:00:00,65.8,56.2,28.16,NE,43,7.0,13.0,71,0.00,,---,0.00,VWS V14.00,2013-09-06 12:00:00,
2013-09-06 08:05:00,65.6,56.0,28.16,ENE,61,7.0,13.0,71,0.00,,---,0.00,VWS V14.00,2013-09-06 12:05:00,
2013-09-06 08:10:00,65.7,56.4,28.16,NE,52,5.0,9.0,72,0.00,,---,0.00,VWS V14.00,2013-09-06 12:10:00,
2013-09-06 08:15:00,65.7,56.0,28.16,NE,49,5.0,9.0,71,0.00,,---,0.00,VWS V14.00,2013-09-06 12:15:00,
2013-09-06 08:20:00,65.8,56.9,28.16,NE,48,6.0,9.0,73,0.00,,---,0.00,VWS V14.00,2013-09-06 12:20:00,
2013-09-06 08:25:00,65.9,56.2,28.16,NNE,22,6.0,9.0,71,0.00,,---,0.00,VWS V14.00,2013-09-06 12:25:00,
2013-09-06 08:30:00,65.7,56.4,28.16,NE,52,7.0,11.0,72,0.00,,---,0.00,VWS V14.00,2013-09-06 12:30:00,
2013-09-06 08:35:00,65.6,56.3,28.16,NE,36,7.0,11.0,72,0.00,,---,0.00,VWS V14.00,2013-09-06 12:35:00,
2013-09-06 08:40:00,65.5,56.2,28.16,NE,51,5.0,12.0,72,0.00,,---,0.00,VWS V14.00,2013-09-06 12:40:00,
2013-09-06 08:45:00,65.4,55.4,28.16,NE,56,7.0,12.0,70,0.00,,---,0.00,VWS V14.00,2013-09-06 12:45:00,
2013-09-06 08:50:00,65.4,55.4,28.16,NE,49,8.0,12.0,70,0.00,,---,0.00,VWS V14.00,2013-09-06 12:50:00,
2013-09-06 08:55:00,65.6,56.0,28.16,NE,46,5.0,12.0,71,0.00,,---,0.00,VWS V14.00,2013-09-06 12:55:00,
2013-09-06 09:00:00,65.5,55.5,28.16,NE,37,5.0,12.0,70,0.00,,---,0.00,VWS V14.00,2013-09-06 13:00:00,
2013-09-06 09:05:00,65.4,55.8,28.16,NE,53,8.0,12.0,71,0.00,,---,0.00,VWS V14.00,2013-09-06 13:05:00,
2013-09-06 09:10:00,65.6,56.0,28.16,NE,45,4.0,9.0,71,0.00,,---,0.00,VWS V14.00,2013-09-06 13:10:00,
2013-09-06 09:15:00,65.7,55.7,28.16,NE,40,4.0,9.0,70,0.00,,---,0.00,VWS V14.00,2013-09-06 13:15:00,
2013-09-06 09:20:00,65.9,55.8,28.16,NE,49,5.0,9.0,70,0.00,,---,0.00,VWS V14.00,2013-09-06 13:20:00,
2013-09-06 09:26:00,66.1,56.0,28.16,East,82,2.0,9.0,70,0.00,,---,0.00,VWS V14.00,2013-09-06 13:26:00,
2013-09-06 09:31:00,66.4,56.7,28.16,ENE,59,1.0,9.0,71,0.00,,---,0.00,VWS V14.00,2013-09-06 13:31:00,
2013-09-06 09:36:00,66.7,56.2,28.16,ENE,59,4.0,9.0,69,0.00,,---,0.00,VWS V14.00,2013-09-06 13:36:00,
2013-09-06 09:41:00,66.9,56.0,28.16,ENE,59,5.0,6.0,68,0.00,,---,0.00,VWS V14.00,2013-09-06 13:41:00,
2013-09-06 09:46:00,67.0,56.1,28.16,ENE,59,3.0,6.0,68,0.00,,---,0.00,VWS V14.00,2013-09-06 13:46:00,
2013-09-06 09:51:00,67.3,56.8,28.16,ENE,59,4.0,6.0,69,0.00,,---,0.00,VWS V14.00,2013-09-06 13:51:00,
2013-09-06 09:56:00,67.5,56.6,28.16,ENE,67,4.0,6.0,68,0.00,,---,0.00,VWS V14.00,2013-09-06 13:56:00,
2013-09-06 10:01:00,67.5,56.2,28.16,NE,48,5.0,6.0,67,0.00,,---,0.00,VWS V14.00,2013-09-06 14:01:00,
2013-09-06 10:06:00,67.6,56.3,28.16,NE,54,6.0,6.0,67,0.00,,---,0.00,VWS V14.00,2013-09-06 14:06:00,
2013-09-06 10:11:00,67.6,56.3,28.16,ENE,57,2.0,7.0,67,0.00,,---,0.00,VWS V14.00,2013-09-06 14:11:00,
2013-09-06 10:16:00,67.8,56.9,28.16,ENE,60,5.0,9.0,68,0.00,,---,0.00,VWS V14.00,2013-09-06 14:16:00,
2013-09-06 10:21:00,67.9,58.2,28.16,NE,55,6.0,9.0,71,0.00,,---,0.00,VWS V14.00,2013-09-06 14:21:00,
2013-09-06 10:26:00,68.0,57.1,28.16,NE,44,5.0,9.0,68,0.00,,---,0.00,VWS V14.00,2013-09-06 14:26:00,
2013-09-06 10:31:00,68.1,57.2,28.16,NE,49,3.0,9.0,68,0.00,,---,0.00,VWS V14.00,2013-09-06 14:31:00,
2013-09-06 10:36:00,68.4,57.4,28.16,ENE,59,3.0,9.0,68,0.00,,---,0.00,VWS V14.00,2013-09-06 14:36:00,
2013-09-06 10:41:00,68.6,57.2,28.16,NE,51,4.0,7.0,67,0.00,,---,0.00,VWS V14.00,2013-09-06 14:41:00,
2013-09-06 10:46:00,68.7,57.7,28.16,NE,47,4.0,7.0,68,0.00,,---,0.00,VWS V14.00,2013-09-06 14:46:00,
2013-09-06 10:51:00,69.0,58.0,28.16,NNE,27,2.0,7.0,68,0.00,,---,0.00,VWS V14.00,2013-09-06 14:51:00,
2013-09-06 10:56:00,69.3,58.3,28.16,ENE,69,4.0,7.0,68,0.00,,---,0.00,VWS V14.00,2013-09-06 14:56:00,
2013-09-06 11:02:00,69.5,58.5,28.16,NE,49,4.0,7.0,68,0.00,,---,0.00,VWS V14.00,2013-09-06 15:02:00,
2013-09-06 11:07:00,69.6,58.6,28.16,NE,39,6.0,7.0,68,0.00,,---,0.00,VWS V14.00,2013-09-06 15:07:00,
2013-09-06 11:12:00,69.8,58.8,28.16,NE,46,3.0,6.0,68,0.00,,---,0.00,VWS V14.00,2013-09-06 15:12:00,
2013-09-06 11:17:00,70.0,58.5,28.16,NE,43,3.0,6.0,67,0.00,,---,0.00,VWS V14.00,2013-09-06 15:17:00,
2013-09-06 11:22:00,70.2,59.2,28.16,NE,42,4.0,6.0,68,0.00,,---,0.00,VWS V14.00,2013-09-06 15:22:00,
2013-09-06 11:27:00,70.6,60.0,28.16,NE,42,4.0,6.0,69,0.00,,---,0.00,VWS V14.00,2013-09-06 15:27:00,
2013-09-06 11:32:00,70.8,59.7,28.16,NE,43,2.0,6.0,68,0.00,,---,0.00,VWS V14.00,2013-09-06 15:32:00,
2013-09-06 11:37:00,71.2,59.7,28.16,NE,43,4.0,6.0,67,0.00,,---,0.00,VWS V14.00,2013-09-06 15:37:00,
2013-09-06 11:42:00,71.3,59.4,28.16,NE,43,3.0,6.0,66,0.00,,---,0.00,VWS V14.00,2013-09-06 15:42:00,
2013-09-06 11:47:00,71.3,59.8,28.16,NE,34,4.0,6.0,67,0.00,,---,0.00,VWS V14.00,2013-09-06 15:47:00,
2013-09-06 11:52:00,71.4,59.9,28.16,NE,34,1.0,6.0,67,0.00,,---,0.00,VWS V14.00,2013-09-06 15:52:00,
2013-09-06 11:57:00,71.7,59.8,28.16,NE,36,0.0,6.0,66,0.00,,---,0.00,VWS V14.00,2013-09-06 15:57:00,
2013-09-06 12:02:00,72.1,59.7,28.16,NE,36,0.0,6.0,65,0.00,,---,0.00,VWS V14.00,2013-09-06 16:02:00,
2013-09-06 12:07:00,72.4,60.0,28.16,NE,36,0.0,6.0,65,0.00,,---,0.00,VWS V14.00,2013-09-06 16:07:00,
2013-09-06 12:12:00,72.9,60.5,28.16,NE,36,0.0,2.0,65,0.00,,---,0.00,VWS V14.00,2013-09-06 16:12:00,
2013-09-06 12:17:00,73.4,60.9,28.16,NE,36,0.0,2.0,65,0.00,,---,0.00,VWS V14.00,2013-09-06 16:17:00,
2013-09-06 12:22:00,74.1,61.2,28.16,NE,36,0.0,2.0,64,0.00,,---,0.00,VWS V14.00,2013-09-06 16:22:00,
2013-09-06 12:27:00,74.1,61.2,28.16,NE,36,3.0,4.0,64,0.00,,---,0.00,VWS V14.00,2013-09-06 16:27:00,
2013-09-06 12:32:00,74.0,61.1,28.16,NE,36,1.0,4.0,64,0.00,,---,0.00,VWS V14.00,2013-09-06 16:32:00,
2013-09-06 12:37:00,74.2,61.2,28.16,NE,36,0.0,1.0,64,0.00,,---,0.00,VWS V14.00,2013-09-06 16:37:00,
2013-09-06 12:42:00,74.5,62.0,28.16,NE,36,4.0,5.0,65,0.00,,---,0.00,VWS V14.00,2013-09-06 16:42:00,
2013-09-06 12:47:00,74.4,61.4,22.84,NE,36,0.0,5.0,64,0.00,,---,0.00,VWS V14.00,2013-09-06 16:47:00,
2013-09-06 12:52:00,74.8,61.8,22.84,NE,36,4.0,5.0,64,0.00,,---,0.00,VWS V14.00,2013-09-06 16:52:00,
2013-09-06 12:58:00,74.8,61.4,22.84,NE,36,0.0,5.0,63,0.00,,---,0.00,VWS V14.00,2013-09-06 16:58:00,
2013-09-06 13:03:00,75.0,61.6,22.84,NE,37,0.0,5.0,63,0.00,,---,0.00,VWS V14.00,2013-09-06 17:03:00,
2013-09-06 13:08:00,75.3,62.3,22.84,NE,37,0.0,1.0,64,0.00,,---,0.00,VWS V14.00,2013-09-06 17:08:00,
2013-09-06 13:13:00,75.6,62.1,22.84,NE,38,1.0,1.0,63,0.00,,---,0.00,VWS V14.00,2013-09-06 17:13:00,
2013-09-06 13:18:00,76.0,63.4,22.84,NE,38,1.0,3.0,65,0.00,,---,0.00,VWS V14.00,2013-09-06 17:18:00,
2013-09-06 13:23:00,76.1,62.2,22.84,NE,38,0.0,3.0,62,0.00,,---,0.00,VWS V14.00,2013-09-06 17:23:00,
2013-09-06 13:28:00,76.4,62.9,22.84,NE,37,0.0,3.0,63,0.00,,---,0.00,VWS V14.00,2013-09-06 17:28:00,
2013-09-06 13:33:00,76.6,62.6,22.84,NE,38,0.0,3.0,62,0.00,,---,0.00,VWS V14.00,2013-09-06 17:33:00,
2013-09-06 13:38:00,76.9,62.9,22.84,NE,37,0.0,0.0,62,0.00,,---,0.00,VWS V14.00,2013-09-06 17:38:00,
2013-09-06 13:43:00,77.0,63.0,22.84,NE,38,0.0,3.0,62,0.00,,---,0.00,VWS V14.00,2013-09-06 17:43:00,
2013-09-06 13:48:00,77.2,63.2,22.84,NE,37,0.0,3.0,62,0.00,,---,0.00,VWS V14.00,2013-09-06 17:48:00,
2013-09-06 13:53:00,77.5,63.0,22.84,NE,38,0.0,3.0,61,0.00,,---,0.00,VWS V14.00,2013-09-06 17:53:00,
2013-09-06 13:58:00,77.9,63.4,22.84,NE,37,0.0,3.0,61,0.00,,---,0.00,VWS V14.00,2013-09-06 17:58:00,
2013-09-06 14:03:00,78.2,64.6,22.84,NE,38,0.0,3.0,63,0.00,,---,0.00,VWS V14.00,2013-09-06 18:03:00,
2013-09-06 14:08:00,78.3,63.8,21.02,NE,37,0.0,0.0,61,0.00,,---,0.00,VWS V14.00,2013-09-06 18:08:00,
2013-09-06 14:13:00,78.6,63.6,21.02,NE,37,0.0,1.0,60,0.00,,---,0.00,VWS V14.00,2013-09-06 18:13:00,
2013-09-06 14:18:00,78.7,63.7,21.02,NE,37,0.0,1.0,60,0.00,,---,0.00,VWS V14.00,2013-09-06 18:18:00,
2013-09-06 14:23:00,79.4,64.3,21.02,NE,38,1.0,1.0,60,0.00,,---,0.00,VWS V14.00,2013-09-06 18:23:00,
2013-09-06 14:28:00,79.6,65.0,21.02,NE,38,0.0,3.0,61,0.00,,---,0.00,VWS V14.00,2013-09-06 18:28:00,
2013-09-06 14:34:00,79.5,64.4,21.02,NE,38,1.0,4.0,60,0.00,,---,0.00,VWS V14.00,2013-09-06 18:34:00,
2013-09-06 14:39:00,79.2,65.1,21.02,NE,37,0.0,1.0,62,0.00,,---,0.00,VWS V14.00,2013-09-06 18:39:00,
2013-09-06 14:44:00,79.2,64.6,21.02,NE,38,1.0,1.0,61,0.00,,---,0.00,VWS V14.00,2013-09-06 18:44:00,
2013-09-06 14:49:00,79.2,65.5,21.02,NE,38,4.0,5.0,63,0.00,,---,0.00,VWS V14.00,2013-09-06 18:49:00,
2013-09-06 14:54:00,79.2,64.6,21.02,NE,37,0.0,5.0,61,0.00,,---,0.00,VWS V14.00,2013-09-06 18:54:00,
2013-09-06 14:59:00,79.4,65.3,21.02,NE,38,2.0,5.0,62,0.00,,---,0.00,VWS V14.00,2013-09-06 18:59:00,
2013-09-06 15:04:00,79.5,65.3,21.02,NE,37,0.0,5.0,62,0.00,,---,0.00,VWS V14.00,2013-09-06 19:04:00,
2013-09-06 15:09:00,79.6,65.0,21.02,NE,38,1.0,2.0,61,0.00,,---,0.00,VWS V14.00,2013-09-06 19:09:00,
2013-09-06 15:14:00,79.8,65.6,21.02,NE,38,0.0,3.0,62,0.00,,---,0.00,VWS V14.00,2013-09-06 19:14:00,
2013-09-06 15:19:00,79.9,65.7,21.02,NE,38,0.0,3.0,62,0.00,,---,0.00,VWS V14.00,2013-09-06 19:19:00,
2013-09-06 15:24:00,79.9,65.3,21.02,NE,38,1.0,3.0,61,0.00,,---,0.00,VWS V14.00,2013-09-06 19:24:00,
2013-09-06 15:29:00,80.2,66.5,21.02,NE,38,2.0,3.0,63,0.00,,---,0.00,VWS V14.00,2013-09-06 19:29:00,
2013-09-06 15:34:00,80.4,66.2,21.02,NE,37,2.0,3.0,62,0.00,,---,0.00,VWS V14.00,2013-09-06 19:34:00,
2013-09-06 15:39:00,80.4,66.2,21.02,NE,38,1.0,1.0,62,0.00,,---,0.00,VWS V14.00,2013-09-06 19:39:00,
2013-09-06 15:44:00,80.5,66.3,21.02,NE,38,1.0,3.0,62,0.00,,---,0.00,VWS V14.00,2013-09-06 19:44:00,
2013-09-06 15:49:00,80.6,66.4,31.21,NE,37,0.0,3.0,62,0.00,,---,0.00,VWS V14.00,2013-09-06 19:49:00,
2013-09-06 15:54:00,80.9,66.2,31.21,NE,37,0.0,3.0,61,0.00,,---,0.00,VWS V14.00,2013-09-06 19:54:00,
2013-09-06 15:59:00,80.9,65.7,31.21,NE,37,0.0,3.0,60,0.00,,---,0.00,VWS V14.00,2013-09-06 19:59:00,
2013-09-06 16:04:00,81.0,66.3,30.94,NE,38,0.0,3.0,61,0.00,,---,0.00,VWS V14.00,2013-09-06 20:04:00,
2013-09-06 16:10:00,81.0,66.3,30.94,NE,38,1.0,1.0,61,0.00,,---,0.00,VWS V14.00,2013-09-06 20:10:00,
2013-09-06 16:15:00,81.1,66.9,30.94,NE,37,1.0,1.0,62,0.00,,---,0.00,VWS V14.00,2013-09-06 20:15:00,
2013-09-06 16:20:00,81.2,66.5,30.94,NE,38,0.0,1.0,61,0.00,,---,0.00,VWS V14.00,2013-09-06 20:20:00,
2013-09-06 16:25:00,81.3,66.6,30.94,NE,37,0.0,1.0,61,0.00,,---,0.00,VWS V14.00,2013-09-06 20:25:00,
2013-09-06 16:30:00,81.2,66.0,30.94,NE,38,0.0,1.0,60,0.00,,---,0.00,VWS V14.00,2013-09-06 20:30:00,
2013-09-06 16:35:00,81.4,66.7,30.94,NE,37,0.0,1.0,61,0.00,,---,0.00,VWS V14.00,2013-09-06 20:35:00,
2013-09-06 16:40:00,81.4,66.7,30.94,NE,38,0.0,1.0,61,0.00,,---,0.00,VWS V14.00,2013-09-06 20:40:00,
2013-09-06 16:45:00,81.4,66.7,30.94,NE,37,0.0,1.0,61,0.00,,---,0.00,VWS V14.00,2013-09-06 20:45:00,
2013-09-06 16:50:00,81.5,66.3,30.94,NE,37,0.0,1.0,60,0.00,,---,0.00,VWS V14.00,2013-09-06 20:50:00,
2013-09-06 16:55:00,81.5,66.3,30.94,NE,38,0.0,1.0,60,0.00,,---,0.00,VWS V14.00,2013-09-06 20:55:00,
2013-09-06 17:00:00,81.8,66.6,30.94,NE,37,0.0,1.0,60,0.00,,---,0.00,VWS V14.00,2013-09-06 21:00:00,
2013-09-06 17:05:00,81.8,66.6,30.94,NE,38,0.0,1.0,60,0.00,,---,0.00,VWS V14.00,2013-09-06 21:05:00,
2013-09-06 17:10:00,81.7,67.4,30.94,ENE,76,1.0,2.0,62,0.00,,---,0.00,VWS V14.00,2013-09-06 21:10:00,
2013-09-06 17:15:00,81.6,66.9,30.94,ENE,78,0.0,2.0,61,0.00,,---,0.00,VWS V14.00,2013-09-06 21:15:00,
2013-09-06 17:20:00,81.8,67.1,30.94,East,86,0.0,2.0,61,0.00,,---,0.00,VWS V14.00,2013-09-06 21:20:00,
2013-09-06 17:25:00,82.0,67.2,30.94,East,86,0.0,2.0,61,0.00,,---,0.00,VWS V14.00,2013-09-06 21:25:00,
2013-09-06 17:30:00,82.1,67.8,30.94,East,86,0.0,2.0,62,0.00,,---,0.00,VWS V14.00,2013-09-06 21:30:00,
2013-09-06 17:35:00,82.1,67.8,30.94,East,86,0.0,2.0,62,0.00,,---,0.00,VWS V14.00,2013-09-06 21:35:00,
2013-09-06 17:40:00,82.3,67.5,30.94,East,86,0.0,0.0,61,0.00,,---,0.00,VWS V14.00,2013-09-06 21:40:00,
2013-09-06 17:45:00,82.3,68.0,30.94,East,86,0.0,0.0,62,0.00,,---,0.00,VWS V14.00,2013-09-06 21:45:00,
2013-09-06 17:50:00,82.3,68.5,30.94,East,86,0.0,0.0,63,0.00,,---,0.00,VWS V14.00,2013-09-06 21:50:00,
2013-09-06 17:55:00,82.4,69.0,30.94,East,86,0.0,0.0,64,0.00,,---,0.00,VWS V14.00,2013-09-06 21:55:00,
2013-09-06 18:01:00,82.5,68.6,30.94,East,86,0.0,0.0,63,0.00,,---,0.00,VWS V14.00,2013-09-06 22:01:00,
2013-09-06 18:06:00,82.9,69.5,30.94,East,86,0.0,0.0,64,0.00,,---,0.00,VWS V14.00,2013-09-06 22:06:00,
2013-09-06 18:11:00,82.9,69.9,30.94,East,86,0.0,0.0,65,0.00,,---,0.00,VWS V14.00,2013-09-06 22:11:00,
2013-09-06 18:16:00,82.6,68.7,30.94,East,86,0.0,0.0,63,0.00,,---,0.00,VWS V14.00,2013-09-06 22:16:00,
2013-09-06 18:21:00,82.0,68.6,30.94,East,86,0.0,0.0,64,0.00,,---,0.00,VWS V14.00,2013-09-06 22:21:00,
2013-09-06 18:26:00,81.3,68.9,32.12,East,86,0.0,0.0,66,0.00,,---,0.00,VWS V14.00,2013-09-06 22:26:00,
2013-09-06 18:31:00,80.9,68.5,32.12,East,86,0.0,0.0,66,0.00,,---,0.00,VWS V14.00,2013-09-06 22:31:00,
2013-09-06 18:36:00,80.6,69.1,32.12,East,86,0.0,0.0,68,0.00,,---,0.00,VWS V14.00,2013-09-06 22:36:00,
2013-09-06 18:41:00,80.3,68.3,32.12,East,86,0.0,0.0,67,0.00,,---,0.00,VWS V14.00,2013-09-06 22:41:00,
2013-09-06 18:46:00,80.0,68.9,32.12,East,86,0.0,0.0,69,0.00,,---,0.00,VWS V14.00,2013-09-06 22:46:00,
2013-09-06 18:51:00,79.5,68.9,32.12,East,86,0.0,0.0,70,0.00,,---,0.00,VWS V14.00,2013-09-06 22:51:00,
2013-09-06 18:56:00,79.0,68.8,32.12,East,86,0.0,0.0,71,0.00,,---,0.00,VWS V14.00,2013-09-06 22:56:00,
2013-09-06 19:01:00,78.7,68.9,32.12,East,86,0.0,0.0,72,0.00,,---,0.00,VWS V14.00,2013-09-06 23:01:00,
2013-09-06 19:06:00,78.2,68.0,32.12,East,86,0.0,0.0,71,0.00,,---,0.00,VWS V14.00,2013-09-06 23:06:00,
2013-09-06 19:11:00,78.1,67.9,32.12,East,86,0.0,0.0,71,0.00,,---,0.00,VWS V14.00,2013-09-06 23:11:00,
2013-09-06 19:16:00,78.2,68.0,32.12,East,86,0.0,0.0,71,0.00,,---,0.00,VWS V14.00,2013-09-06 23:16:00,
2013-09-06 19:21:00,77.9,68.2,32.12,East,86,0.0,0.0,72,0.00,,---,0.00,VWS V14.00,2013-09-06 23:21:00,
2013-09-06 19:26:00,77.7,68.0,32.12,East,86,0.0,0.0,72,0.00,,---,0.00,VWS V14.00,2013-09-06 23:26:00,
2013-09-06 19:31:00,77.4,67.7,32.12,East,86,0.0,0.0,72,0.00,,---,0.00,VWS V14.00,2013-09-06 23:31:00,
2013-09-06 19:36:00,77.1,67.4,32.12,East,86,0.0,0.0,72,0.00,,---,0.00,VWS V14.00,2013-09-06 23:36:00,
2013-09-06 19:41:00,77.0,67.3,32.12,East,86,0.0,0.0,72,0.00,,---,0.00,VWS V14.00,2013-09-06 23:41:00,
2013-09-06 19:46:00,76.9,68.0,32.12,East,86,0.0,0.0,74,0.00,,---,0.00,VWS V14.00,2013-09-06 23:46:00,
2013-09-06 19:52:00,76.3,67.8,32.12,East,86,0.0,0.0,75,0.00,,---,0.00,VWS V14.00,2013-09-06 23:52:00,
2013-09-06 19:57:00,75.6,67.5,32.12,East,86,0.0,0.0,76,0.00,,---,0.00,VWS V14.00,2013-09-06 23:57:00,
2013-09-06 20:02:00,75.3,67.2,32.12,East,86,0.0,0.0,76,0.00,,---,0.00,VWS V14.00,2013-09-07 00:02:00,
2013-09-06 20:07:00,75.1,67.4,32.12,East,86,0.0,0.0,77,0.00,,---,0.00,VWS V14.00,2013-09-07 00:07:00,
2013-09-06 20:12:00,75.1,67.4,32.12,East,86,0.0,0.0,77,0.00,,---,0.00,VWS V14.00,2013-09-07 00:12:00,
2013-09-06 20:17:00,74.8,67.5,32.12,East,86,0.0,0.0,78,0.00,,---,0.00,VWS V14.00,2013-09-07 00:17:00,
2013-09-06 20:22:00,74.4,67.1,32.12,East,86,0.0,0.0,78,0.00,,---,0.00,VWS V14.00,2013-09-07 00:22:00,
2013-09-06 20:27:00,74.1,67.2,32.12,East,86,0.0,0.0,79,0.00,,---,0.00,VWS V14.00,2013-09-07 00:27:00,
2013-09-06 20:32:00,74.1,67.5,32.12,East,86,0.0,0.0,80,0.00,,---,0.00,VWS V14.00,2013-09-07 00:32:00,
2013-09-06 20:37:00,74.0,67.4,32.12,East,86,0.0,0.0,80,0.00,,---,0.00,VWS V14.00,2013-09-07 00:37:00,
2013-09-06 20:42:00,74.1,67.5,28.99,East,86,0.0,0.0,80,0.00,,---,0.00,VWS V14.00,2013-09-07 00:42:00,
2013-09-06 20:47:00,74.2,68.0,28.99,East,86,0.0,0.0,81,0.00,,---,0.00,VWS V14.00,2013-09-07 00:47:00,
2013-09-06 20:52:00,73.9,67.7,28.99,East,86,0.0,0.0,81,0.00,,---,0.00,VWS V14.00,2013-09-07 00:52:00,
2013-09-06 20:57:00,73.6,67.4,28.99,East,86,0.0,0.0,81,0.00,,---,0.00,VWS V14.00,2013-09-07 00:57:00,
2013-09-06 21:02:00,73.5,68.0,28.99,East,86,0.0,0.0,83,0.00,,---,0.00,VWS V14.00,2013-09-07 01:02:00,
2013-09-06 21:07:00,73.4,68.3,28.99,East,86,0.0,0.0,84,0.00,,---,0.00,VWS V14.00,2013-09-07 01:07:00,
2013-09-06 21:12:00,73.4,68.3,28.99,East,86,0.0,0.0,84,0.00,,---,0.00,VWS V14.00,2013-09-07 01:12:00,
2013-09-06 21:17:00,73.1,68.0,28.99,East,86,0.0,0.0,84,0.00,,---,0.00,VWS V14.00,2013-09-07 01:17:00,
2013-09-06 21:22:00,73.0,68.2,28.99,East,86,0.0,0.0,85,0.00,,---,0.00,VWS V14.00,2013-09-07 01:22:00,
2013-09-06 21:27:00,72.8,68.0,28.99,East,86,0.0,0.0,85,0.00,,---,0.00,VWS V14.00,2013-09-07 01:27:00,
2013-09-06 21:32:00,72.8,68.0,28.99,East,86,0.0,0.0,85,0.00,,---,0.00,VWS V14.00,2013-09-07 01:32:00,
2013-09-06 21:38:00,72.6,67.8,28.99,East,86,0.0,0.0,85,0.00,,---,0.00,VWS V14.00,2013-09-07 01:38:00,
2013-09-06 21:43:00,72.5,68.1,28.99,East,86,0.0,0.0,86,0.00,,---,0.00,VWS V14.00,2013-09-07 01:43:00,
2013-09-06 21:48:00,72.2,67.8,28.99,East,86,0.0,0.0,86,0.00,,---,0.00,VWS V14.00,2013-09-07 01:48:00,
2013-09-06 21:53:00,72.2,67.8,28.99,East,86,0.0,0.0,86,0.00,,---,0.00,VWS V14.00,2013-09-07 01:53:00,
2013-09-06 21:58:00,72.1,68.0,28.99,East,86,0.0,0.0,87,0.00,,---,0.00,VWS V14.00,2013-09-07 01:58:00,
2013-09-06 22:03:00,72.2,68.1,28.99,East,86,0.0,0.0,87,0.00,,---,0.00,VWS V14.00,2013-09-07 02:03:00,
2013-09-06 22:08:00,72.1,68.0,28.99,East,86,0.0,0.0,87,0.00,,---,0.00,VWS V14.00,2013-09-07 02:08:00,
2013-09-06 22:13:00,72.1,68.0,28.99,East,86,0.0,0.0,87,0.00,,---,0.00,VWS V14.00,2013-09-07 02:13:00,
2013-09-06 22:18:00,72.2,68.4,28.99,East,86,0.0,0.0,88,0.00,,---,0.00,VWS V14.00,2013-09-07 02:18:00,
2013-09-06 22:23:00,72.6,68.8,28.99,ENE,63,5.0,5.0,88,0.00,,---,0.00,VWS V14.00,2013-09-07 02:23:00,
2013-09-06 22:28:00,73.3,69.5,28.99,ENE,61,5.0,6.0,88,0.00,,---,0.00,VWS V14.00,2013-09-07 02:28:00,
2013-09-06 22:33:00,74.0,69.6,28.99,ENE,61,4.0,6.0,86,0.00,,---,0.00,VWS V14.00,2013-09-07 02:33:00,
2013-09-06 22:38:00,74.3,69.2,28.99,ENE,60,4.0,5.0,84,0.00,,---,0.00,VWS V14.00,2013-09-07 02:38:00,
2013-09-06 22:43:00,74.5,69.0,28.99,ENE,59,4.0,5.0,83,0.00,,---,0.00,VWS V14.00,2013-09-07 02:43:00,
2013-09-06 22:48:00,74.6,69.1,28.99,ENE,57,0.0,5.0,83,0.00,,---,0.00,VWS V14.00,2013-09-07 02:48:00,
2013-09-06 22:54:00,74.1,68.6,28.99,ENE,58,0.0,5.0,83,0.00,,---,0.00,VWS V14.00,2013-09-07 02:54:00,
2013-09-06 22:59:00,73.5,68.4,28.99,ENE,58,0.0,5.0,84,0.00,,---,0.00,VWS V14.00,2013-09-07 02:59:00,
2013-09-06 23:04:00,73.0,68.2,28.99,ENE,58,0.0,5.0,85,0.00,,---,0.00,VWS V14.00,2013-09-07 03:04:00,
2013-09-06 23:09:00,72.5,67.7,28.99,ENE,57,0.0,0.0,85,0.00,,---,0.00,VWS V14.00,2013-09-07 03:09:00,
2013-09-06 23:14:00,72.1,67.7,28.99,ENE,58,0.0,0.0,86,0.00,,---,0.00,VWS V14.00,2013-09-07 03:14:00,
2013-09-06 23:19:00,71.8,67.4,28.99,ENE,57,0.0,0.0,86,0.00,,---,0.00,VWS V14.00,2013-09-07 03:19:00,
2013-09-06 23:24:00,71.7,67.6,28.99,ENE,58,0.0,0.0,87,0.00,,---,0.00,VWS V14.00,2013-09-07 03:24:00,
2013-09-06 23:29:00,71.5,67.4,28.99,ENE,57,0.0,0.0,87,0.00,,---,0.00,VWS V14.00,2013-09-07 03:29:00,
2013-09-06 23:34:00,71.3,67.2,28.99,ENE,58,0.0,0.0,87,0.00,,---,0.00,VWS V14.00,2013-09-07 03:34:00,
2013-09-06 23:39:00,71.1,67.0,28.99,ENE,57,0.0,0.0,87,0.00,,---,0.00,VWS V14.00,2013-09-07 03:39:00,
2013-09-06 23:44:00,71.1,67.0,28.99,ENE,58,0.0,0.0,87,0.00,,---,0.00,VWS V14.00,2013-09-07 03:44:00,
2013-09-06 23:49:00,71.0,66.9,28.99,ENE,58,0.0,0.0,87,0.00,,---,0.00,VWS V14.00,2013-09-07 03:49:00,
2013-09-06 23:54:00,70.9,66.8,28.99,ENE,58,0.0,0.0,87,0.00,,---,0.00,VWS V14.00,2013-09-07 03:54:00,
2013-09-06 23:59:00,70.8,66.4,28.99,ENE,58,0.0,0.0,86,0.00,,---,0.00,VWS V14.00,2013-09-07 03:59:00,